Preview of NWS' New Version of Forecast
This preview is not operational and should not be used for support decisions.

Regional Weather Roundup (RWR)

Issued by National Weather Service (NWS)

                            
000
ASUS44 KMEG 231810
RWRTN 
TENNESSEE HOURLY STATE WEATHER ROUNDUP
NATIONAL WEATHER SERVICE MEMPHIS TN
100 PM CDT TUE APR 23 2019

TNZ002-004-019-021-049-052-054-088>092-231900-
WEST TENNESSEE
  
CITY           SKY/WX    TMP DP  RH WIND       PRES   REMARKS
MEMPHIS INTL   PTSUNNY   75  61  61 VRB6      30.07F                  
NWS MEMPHIS      N/A     77 N/A N/A MISG        N/A                   
JACKSON        FAIR      75  60  59 SW8       30.09F                  
DYERSBURG      FAIR      77  58  51 SW8       30.07F                  
SOMERVILLE     SUNNY     75  61  60 SW12G17   30.08F                  
COVINGTON      SUNNY     77  61  57 SW12      30.07F                  
UNION CITY     SUNNY     75  55  50 SW13G18   30.05S                  
BOLIVAR        SUNNY     75  59  57 SW9       30.09S                  
PARIS          SUNNY     75  55  50 SW13      30.06S                  
HUNTINGDON     SUNNY     75  57  53 W9G15     30.07S                  
LEXINGTON      SUNNY     77  55  47 W9G15     30.07F                  
SELMER         SUNNY     73  57  56 VRB7G13   30.09S                  
SAVANNAH       SUNNY     75  57  53 SW8       30.09S                  
$$

TNZ008-025-027-028-033-062-065-066-231900-
NORTH MIDDLE TENNESSEE
  
CITY           SKY/WX    TMP DP  RH WIND       PRES   REMARKS
NASHVILLE      CLOUDY    80  48  32 SW8       30.07F                  
DICKSON        CLEAR     75  48  38 SW10      30.06F                  
PORTLAND       SUNNY     79  48  34 SW6G15    30.05F                  
CLARKSVILLE    FAIR      79  51  37 S14G21    30.04F                  
LEBANON        CLEAR     79  48  34 SW14      30.05F                  
SMYRNA         FAIR      79  51  37 SW8       30.07F                  
MURFREESBORO   CLEAR     77  48  36 SW12G18   30.06F                  
COOKEVILLE     SUNNY     79  50  36 VRB7G15   30.09F                  
LIVINGSTON     CLEAR     75  50  41 SW9G17    30.08F                  
GALLATIN       CLEAR     79  48  34 VRB6G14   30.08F                  
CROSSVILLE     FAIR      75  48  38 W14G23    30.13F                  
ROCKWOOD       CLEAR     77  46  33 NW8G15    30.09F                  
$$

TNZ061-075-076-078-094-096-097-231900-
SOUTH MIDDLE TENNESSEE
  
CITY           SKY/WX    TMP DP  RH WIND       PRES   REMARKS
LAWRENCEBURG   CLEAR     75  52  43 SW7       30.10S                  
LEWISBURG      CLEAR     77  50  38 S8        30.07F                  
FAYETTEVILLE   SUNNY     75  50  41 SW8       30.11F                  
TULLAHOMA      SUNNY     75  52  43 W13       30.10F                  
WINCHESTER     SUNNY     75  52  43 VRB6G14   30.11F                  
MCMINNVILLE    SUNNY     77  54  44 W10G16    30.10F                  
COLUMBIA       SUNNY     75  50  41 SW8       30.06F                  
SHELBYVILLE    SUNNY     75  52  43 SW10      30.09F                  
$$

TNZ017-018-042-046-047-231900-
NORTHEAST TENNESSEE
  
CITY           SKY/WX    TMP DP  RH WIND       PRES   REMARKS
TRI CITIES     FAIR      76  48  37 W15G22    30.08F                  
ELIZABETHTON   FAIR      77  52  41 VRB5G15   30.08F                  
GREENEVILLE    CLEAR     75  48  38 SW10G17   30.09F                  
$$

TNZ012-013-036-069-073-074-231900-
CENTRAL EAST TENNESSEE
  
CITY           SKY/WX    TMP DP  RH WIND       PRES   REMARKS
KNOXVILLE      FAIR      78  52  40 W3        30.08F                  
OAK RIDGE      FAIR      81  52  36 VRB7      30.08F                  
DOWNTOWN KNOXV SUNNY     79  54  41 SW10G21   30.08F                  
GATLINBURG     SUNNY     79  50  36 W12G21    30.07F                  
MORRISTOWN     SUNNY     77  50  38 W13G23    30.08F                  
JACKSBORO      SUNNY     79  52  38 CALM      30.09F                  
$$

TNZ083-085-099-231900-
SOUTHEAST TENNESSEE
  
CITY           SKY/WX    TMP DP  RH WIND       PRES   REMARKS
CHATTANOOGA    PTSUNNY   82  46  28 SW13      30.09F                  
DAYTON         CLEAR     81  54  39 S6G13     30.07F                  
$$

SKY/WX REPORTED AS FAIR MEANS FEW OR NO CLOUDS BELOW
12 THOUSAND FEET.